Location: Antill�n
(42.0364°N, 0.1624°W)
Time: 12:50:39
(UTC+00:00)

Daily predictions for brighter satellites

Satellite Brightness Start Highest point End
(mag) Time Altitude Azimuth Time Altitude Azimuth Time Altitude Azimuth
Cosmos 2297 Rocket 2.8 16:57:19 10° N 17:02:26 34° ENE 17:07:33 10° ESE
Meteor 2-10 Rocket 3.8 16:58:18 10° SSW 17:03:16 72° W 17:08:20 10° N
Cosmos 2344 4.1 16:58:44 10° SW 17:06:10 61° NW 17:14:16 10° NNE
Okean-O 3.3 17:05:34 10° SE 17:09:29 32° ENE 17:13:25 10° N
H-2A R/B 2.9 17:12:47 10° SSE 17:16:32 51° ENE 17:20:15 10° N
Genesis I 3.9 17:16:38 10° SW 17:20:34 54° NW 17:24:31 10° NNE
Cosmos 773 Rocket 4.0 17:17:27 10° SSW 17:22:36 83° ESE 17:27:49 10° NNE
Cosmos 1867 4.4 17:18:53 10° SW 17:24:10 49° NW 17:29:30 10° NNE
Cosmos 1743 Rocket 4.0 17:20:24 10° NNW 17:24:44 69° W 17:29:04 10° S
Cosmos 1805 Rocket 3.8 17:20:41 10° N 17:24:52 45° ENE 17:29:04 10° SSE
Cosmos 2233 Rocket 4.1 17:20:27 10° N 17:26:49 90° SW 17:33:05 10° S
Cosmos 2082 4.3 17:25:09 10° N 17:30:12 33° ENE 17:35:12 10° ESE
COBE Rocket 3.8 17:30:34 10° NNE 17:35:21 66° E 17:40:00 10° S
AQUARIUS 4.2 17:32:13 10° SSE 17:36:43 86° WSW 17:41:15 10° NNW
Cosmos 1697 Rocket 3.3 17:31:45 10° SSE 17:36:49 35° ESE 17:41:53 10° NE
Meteor 2-2 Rocket 4.3 17:31:04 10° S 17:36:57 86° E 17:42:45 10° N
Okean O Rocket 4.3 17:34:03 10° SSW 17:37:37 24° W 17:41:11 10° NW
Meteor 2-20 Rocket 4.5 17:32:25 10° S 17:38:22 58° E 17:44:23 10° NNE
ATLAS 5 CENTAUR R/B 2.4 17:34:47 10° NNW 17:40:37 67° NE 17:47:15 10° SE
Cosmos 1862 4.1 17:39:19 10° NNE 17:42:50 30° ENE 17:46:22 10° SE
Cosmos 1538 Rocket 4.1 17:37:45 10° SSW 17:43:00 86° WNW 17:48:21 10° NNE
BREEZE-M DEB (TANK) 3.9 17:43:46 10° WNW 17:46:29 20° N 17:47:37 15° NNE
NOAA 12 4.0 17:41:51 10° SSE 17:47:10 77° ENE 17:52:31 10° N
Meteor 2-20 4.5 17:43:28 10° S 17:49:34 86° W 17:55:46 10° N
Cosmos 1464 Rocket 4.0 17:43:59 10° N 17:50:01 54° ENE 17:55:59 10° SSE
GEOS 3 Rocket 4.1 17:46:24 10° NNE 17:51:34 62° NW 17:56:45 10° SW
Cosmos 1633 Rocket 3.4 17:50:09 10° N 17:54:19 40° ENE 17:58:28 10° SSE
Cosmos 2084 4.3 17:53:00 10° NW 17:57:10 52° WSW 18:01:14 10° SSE
Cosmos 1072 Rocket 4.4 17:53:06 10° N 17:59:13 70° E 18:05:23 10° SSE
USA 215 4.2 17:56:07 18° ENE 17:59:45 31° NNE 18:05:19 10° NW
Cosmos 1633 2.4 17:59:00 10° N 18:02:38 64° E 18:06:14 10° SSE
COSMO-SKYMED 1 2.5 17:59:34 10° NNE 18:03:56 68° ESE 18:08:14 10° S
Cosmos 1666 Rocket 3.4 18:01:30 10° N 18:05:52 66° E 18:10:09 10° SSE
NOSS 2-3 (E) 3.8 18:02:21 10° SSW 18:06:31 53° ESE 18:08:53 26° NE
Sich 1 3.0 18:02:33 10° N 18:06:55 87° W 18:11:17 10° S
Cosmos 1656 3.8 18:01:42 10° SSW 18:07:16 76° WNW 18:12:47 10° NNE
Cosmos 1607 4.1 18:01:26 10° NW 18:07:39 76° WSW 18:13:54 10° SSE
Cosmos 1328 Rocket 3.8 18:03:57 10° SSE 18:08:10 45° E 18:11:27 16° NNE
USA 229 DEB 4.0 18:02:24 10° SW 18:08:54 62° NW 18:15:39 10° NNE
USA 229 4.0 18:02:31 10° SW 18:09:00 63° NW 18:15:43 10° NNE
Envisat 3.1 18:05:02 10° S 18:10:06 82° WSW 18:15:14 10° NNW
APEX 4.4 18:07:17 10° SSE 18:09:35 23° SE 18:09:35 23° SE
Cosmos 1151 Rocket 3.3 18:06:49 10° SSE 18:10:55 44° E 18:13:21 22° NNE
PSLV R/B 2.7 18:09:50 10° W 18:12:19 64° SSW 18:12:19 64° SSW
NOSS 3-1 (A) 3.2 18:08:35 10° SW 18:14:03 89° NW 18:18:58 17° NE
Cosmos 1356 Rocket 4.2 18:10:12 10° SSW 18:14:14 52° WNW 18:18:22 10° N
NOSS 3-1 (C) 3.8 18:09:04 10° SW 18:14:29 58° NW 18:20:15 12° NNE
CSL-04 Debris 4.2 18:09:28 10° SSE 18:14:51 60° ENE 18:20:16 10° N
NOSS 2-3 (D) 3.6 18:11:45 10° SSW 18:15:58 60° ESE 18:17:54 33° NE
TELKOM 3 4.2 18:14:52 10° WNW 18:16:17 35° WNW 18:16:17 35° WNW
SeaSat 1 2.8 18:13:48 10° SSE 18:18:41 67° WSW 18:23:37 10° NNW
YAOGAN 6 2.6 18:20:09 10° S 18:23:39 76° W 18:27:09 10° NNW
Lacrosse 4 Rocket 1.5 18:20:13 10° SW 18:24:17 70° WNW 18:26:19 28° NNE
CZ-4 R/B 4.5 18:21:43 10° S 18:25:50 79° WSW 18:30:00 10° NNW
Cosmos 1371 Rocket 4.2 18:23:43 10° N 18:28:42 44° ENE 18:29:08 43° E
YAOGAN 1 2.4 18:25:14 10° SSE 18:29:32 80° ENE 18:33:53 10° N
CSL-04 Rocket 3.5 18:27:08 10° SSE 18:32:30 83° ENE 18:37:52 10° NNW
CZ-4 R/B 1.7 18:30:27 10° S 18:34:37 67° W 18:38:43 10° NNW
ERBS 3.4 18:32:27 10° WSW 18:35:33 35° NW 18:35:52 34° NNW
Cosmos 1470 Rocket 3.5 18:32:20 10° N 18:36:49 64° E 18:37:26 56° ESE
Cosmos 2346 Rocket 4.3 18:31:24 10° S 18:37:38 79° E 18:43:50 10° N
USA 116 4.3 18:34:34 11° N 18:38:58 81° WNW 18:44:04 10° SSW
Cosmos 1980 Rocket 2.1 18:35:10 10° S 18:40:44 64° ESE 18:42:22 45° NE
Cosmos 2112 Rocket 3.9 18:35:35 10° SSW 18:40:46 88° ESE 18:43:26 30° NNE
Cosmos 724 4.2 18:35:59 10° NNW 18:41:48 63° NE 18:43:11 48° ESE
Meteor 2-11 Rocket 4.5 18:39:08 10° N 18:45:16 81° W 18:51:24 10° S
Cosmos 2227 Rocket 3.5 18:41:09 10° NW 18:46:24 39° WSW 18:51:35 10° S
Cosmos 2297 Rocket 3.7 18:41:20 10° NW 18:46:27 36° WSW 18:51:33 10° S
Cosmos 2034 Rocket 4.1 18:40:31 10° N 18:46:53 77° W 18:53:14 10° S
Cosmos 1680 Rocket 3.7 18:42:51 10° SSW 18:48:02 68° WNW 18:51:19 23° N
Ariane Rocket 3.6 18:54:36 41° NNE 18:54:36 41° NNE 18:58:02 10° N
NOSS 2-3 (C) 4.1 18:49:40 10° SW 18:53:57 60° NW 18:54:59 47° N
Cosmos 158 Rocket 3.8 18:49:30 10° SSW 18:54:49 76° ESE 18:55:05 74° ENE
Tsikada Rocket 4.2 19:00:57 10° SSW 19:07:17 73° W 19:13:43 10° N
Cosmos 1634 Rocket 4.1 19:02:00 10° N 19:07:08 58° NNE 19:07:08 58° NNE
Cosmos 2263 Rocket 3.7 19:04:40 10° N 19:06:52 22° N 19:06:52 22° N
Cosmos 1624 Rocket 4.4 19:15:10 10° NNW 19:19:31 58° NW 19:19:31 58° NW
Cosmos 1697 Rocket 4.1 19:15:34 10° WSW 19:20:43 35° WNW 19:23:49 21° N
Cosmos 2056 Rocket 4.2 19:15:36 10° NNW 19:19:11 46° NNW 19:19:11 46° NNW
USA 215 3.6 19:43:28 56° NNW 19:43:28 56° NNW 19:48:37 10° NW
Centaur D-1A AC-31 4.0 19:43:36 10° SSW 19:43:48 11° SSW 19:43:48 11° SSW
Cosmos 1980 Rocket 4.4 20:20:57 10° W 20:24:11 20° WNW 20:24:11 20° WNW
